{"data":{"norad_id":61867,"epoch":"2026-09-21T06:21:31.467456Z","epoch_age_seconds":122342,"freshness":"FRESH","line1":"1 61867U 24202Y   26264.26494754  .00000073  00000+0  12165-4 0  9997","line2":"2 61867  43.0014 213.8873 0001073 275.4625  84.6104 15.27577947105245","mean_motion":15.27577947,"eccentricity":0.0001073,"inclination_deg":43.0014,"raan_deg":213.8873,"arg_perigee_deg":275.4625,"mean_anomaly_deg":84.6104,"bstar":1.2165e-5,"rev_number":10524,"period_min":94.266875404166,"perigee_km":482.31903753938,"apogee_km":483.79144939482,"semimajor_km":6861.1922434671,"source":"CELESTRAK","updated_at":"2026-09-22T09:00:49.444382Z"}}